Find Starlink 32276

NORAD ID: 60944 Int'l Des: 2024-155 Owner: SPXS Country: US Constellation: starlink operational
LEOCIRCULAR

Live Position

Loading 3D Globe...

About Starlink 32276

Description loading...

Upcoming Passes

Passes for default location (London). Set your location on the main map for personalized predictions.

Altitude History

Loading altitude history...

Two-Line Element Set

1 60944U 24155W 26127.64019713 .00005482 00000-0 19707-3 0 9995
2 60944 53.1580 216.0442 0001493 94.4780 265.6391 15.30204013 95415
Epoch: May 7, 2026 • Age: 11 hours

Current Status

Altitude 476.4 km
Velocity 7.63 km/s
Sub-Earth Point -1.17°S, 47.85°W
Launch Date Aug 31, 2024
Age 1.6 years
Type internet

Technical Details

Classification Payload
Mass 730.00 kg
Dry Mass 700.00 kg
Total Mass 730.00 kg
Length 0.30 m
Diameter 4.10 m
Span 29.00 m
Shape Box + pan
Manufacturer SPXS
Bus Type Starlink V2M
Phase Status In Orbit
Owner/State SPXS/US

Most Searched